Location: Madrid
(40.4167°N, 3.7036°W)
Time: 18:59:13
(UTC+00:00)

ISS - Pass Details

Date: 13 October 2025
Orbit: 414 x 421 km, 51.6° (Epoch: 07 November)

Event Time Altitude Azimuth Distance (km) Brightness Sun altitude
Rises 05:46:45 0° 196° (SSW) 2,348 -0.1 -7.8°
Reaches altitude 10° 05:49:17 10° 176° (S) 1,492 -0.8 -7.3°
Maximum altitude 05:51:38 18° 131° (SE) 1,111 -0.8 -6.9°
Drops below altitude 10° 05:53:59 10° 87° (E) 1,503 0.8 -6.4°
Sets 05:56:33 0° 67° (ENE) 2,374 1.3 -6.0°
